Location: Jodlow
(50.1500°N, 16.7500°E)
Time: 03:52:16
(UTC+01:00)

Envisat - Visible Passes

Search period start: 10 December 2022 00:00
Search period end: 20 December 2022 00:00
Orbit: 763 x 765 km, 98.2° (Epoch: 09 December)

Date Brightness Start Highest point End Pass type
(mag) Time Alt. Az. Time Alt. Az. Time Alt. Az.
10 Dec 4.8 04:19:05 10° NNE 04:20:43 21° NNE 04:20:43 21° NNE visible
10 Dec 4.7 05:59:18 10° NNW 06:00:53 15° NNW 06:00:53 15° NNW visible
11 Dec 5.4 03:42:14 10° NNE 03:43:10 15° NNE 03:43:10 15° NNE visible
11 Dec 4.6 05:21:32 10° N 05:23:20 20° NNW 05:23:20 20° NNW visible
11 Dec 5.9 16:43:14 10° WSW 16:45:56 14° W 16:48:40 10° NW visible
12 Dec 4.7 04:44:11 10° N 04:45:48 20° N 04:45:48 20° N visible
12 Dec 4.9 06:25:32 10° NNW 06:25:59 11° NW 06:25:59 11° NW visible
13 Dec 5.2 04:07:07 10° NNE 04:08:16 17° NNE 04:08:16 17° NNE visible
13 Dec 4.7 05:47:01 10° N 05:48:26 16° NNW 05:48:26 16° NNW visible
14 Dec 5.7 03:30:24 10° NNE 03:30:44 12° NNE 03:30:44 12° NNE visible
14 Dec 4.7 05:09:25 10° N 05:10:55 18° N 05:10:55 18° N visible
14 Dec 5.7 16:30:24 10° SW 16:33:49 18° W 16:37:16 10° NW visible
15 Dec 5.0 04:32:10 10° N 04:33:24 18° N 04:33:24 18° N visible
15 Dec 4.9 06:12:52 10° NNW 06:13:34 12° NNW 06:13:34 12° NNW visible
16 Dec 5.4 03:55:12 10° NNE 03:55:53 14° NNE 03:55:53 14° NNE visible
16 Dec 4.8 05:34:49 10° N 05:36:04 16° NNW 05:36:04 16° NNW visible
16 Dec 6.2 16:58:03 10° W 16:59:13 11° W 17:00:24 10° WNW visible
17 Dec 4.9 04:57:20 10° N 04:58:33 17° N 04:58:33 17° N visible
18 Dec 5.2 04:20:10 10° NNE 04:21:03 15° NNE 04:21:03 15° NNE visible
18 Dec 4.9 06:00:27 10° NNW 06:01:13 12° NNW 06:01:13 12° NNW visible
19 Dec 5.7 03:43:18 10° NNE 03:43:33 11° NNE 03:43:33 11° NNE visible
19 Dec 4.9 05:22:39 10° N 05:23:44 15° N 05:23:44 15° N visible
19 Dec 5.9 16:44:31 10° WSW 16:47:04 14° W 16:49:37 10° NW visible
